Time,TemperatureF,DewpointF,PressureIn,WindDirection,WindDirectionDegrees,WindSpeedMPH,WindSpeedGustMPH,Humidity,HourlyPrecipIn,Conditions,Clouds,dailyrainin,SoftwareType,DateUTC
2013-12-20 00:10:00,34.7,32.3,30.08,SW,231,1.0,6.0,91,0.00,,OVC,0.00,WeatherDisplay:10.37,2013-12-20 05:10:00,
2013-12-20 00:20:00,34.9,32.2,30.08,WSW,241,1.0,3.0,90,0.00,,OVC,0.00,WeatherDisplay:10.37,2013-12-20 05:20:00,
2013-12-20 00:30:00,34.9,32.0,30.08,West,277,0.0,1.0,89,0.00,,OVC,0.00,WeatherDisplay:10.37,2013-12-20 05:30:00,
2013-12-20 00:40:00,35.0,32.1,30.08,WNW,289,0.0,1.0,89,0.00,,OVC,0.00,WeatherDisplay:10.37,2013-12-20 05:40:00,
2013-12-20 00:49:00,35.4,32.5,30.08,WSW,251,0.0,2.0,89,0.00,,OVC,0.00,WeatherDisplay:10.37,2013-12-20 05:49:00,
2013-12-20 00:59:00,35.4,32.5,30.06,SW,225,1.0,2.0,89,0.00,,OVC,0.00,WeatherDisplay:10.37,2013-12-20 05:59:00,
2013-12-20 01:09:00,35.1,32.1,30.06,NW,314,0.0,2.0,89,0.00,,OVC,0.00,WeatherDisplay:10.37,2013-12-20 06:09:00,
2013-12-20 01:19:00,35.4,32.5,30.06,NW,316,0.0,2.0,89,0.00,,OVC,0.00,WeatherDisplay:10.37,2013-12-20 06:19:00,
2013-12-20 01:30:00,35.6,32.7,30.08,WSW,244,0.0,3.0,89,0.00,,OVC,0.00,WeatherDisplay:10.37,2013-12-20 06:30:00,
2013-12-20 01:40:00,35.8,33.1,30.06,WSW,238,1.0,2.0,90,0.00,,OVC,0.00,WeatherDisplay:10.37,2013-12-20 06:40:00,
2013-12-20 01:49:00,35.8,33.1,30.06,WSW,248,0.0,2.0,90,0.00,,OVC,0.00,WeatherDisplay:10.37,2013-12-20 06:49:00,
2013-12-20 01:59:00,36.0,33.3,30.06,SSW,211,1.0,2.0,90,0.00,,OVC,0.00,WeatherDisplay:10.37,2013-12-20 06:59:00,
2013-12-20 02:09:00,35.5,33.2,30.06,WSW,248,1.0,4.0,91,0.00,,OVC,0.00,WeatherDisplay:10.37,2013-12-20 07:09:00,
2013-12-20 02:19:00,34.7,32.6,30.06,West,274,0.0,2.0,92,0.00,,OVC,0.00,WeatherDisplay:10.37,2013-12-20 07:19:00,
2013-12-20 02:29:00,34.5,32.7,30.08,West,263,0.0,2.0,93,0.00,,OVC,0.00,WeatherDisplay:10.37,2013-12-20 07:29:00,
2013-12-20 02:39:00,34.3,32.5,30.08,WNW,287,1.0,3.0,93,0.00,,OVC,0.00,WeatherDisplay:10.37,2013-12-20 07:39:00,
2013-12-20 02:49:00,34.3,32.8,30.08,WNW,288,0.0,3.0,94,0.00,,OVC,0.00,WeatherDisplay:10.37,2013-12-20 07:49:00,
2013-12-20 02:59:00,34.3,32.8,30.06,West,261,2.0,2.0,94,0.00,,OVC,0.00,WeatherDisplay:10.37,2013-12-20 07:59:00,
2013-12-20 03:10:00,34.3,33.3,30.06,West,279,1.0,3.0,96,0.00,,OVC,0.00,WeatherDisplay:10.37,2013-12-20 08:10:00,
2013-12-20 03:19:00,34.2,33.1,30.06,WNW,282,2.0,2.0,96,0.00,,OVC,0.00,WeatherDisplay:10.37,2013-12-20 08:19:00,
2013-12-20 03:29:00,34.2,33.1,30.06,WNW,283,1.0,2.0,96,0.00,,OVC,0.00,WeatherDisplay:10.37,2013-12-20 08:29:00,
2013-12-20 03:39:00,34.4,33.6,30.06,West,278,1.0,3.0,97,0.00,,OVC,0.00,WeatherDisplay:10.37,2013-12-20 08:39:00,
2013-12-20 03:49:00,35.1,34.3,30.06,West,265,1.0,4.0,97,0.00,,OVC,0.00,WeatherDisplay:10.37,2013-12-20 08:49:00,
2013-12-20 03:59:00,35.2,34.4,30.03,WSW,249,1.0,3.0,97,0.00,,OVC,0.00,WeatherDisplay:10.37,2013-12-20 08:59:00,
2013-12-20 04:09:00,35.2,34.5,30.06,WSW,244,1.0,3.0,97,0.00,,OVC,0.00,WeatherDisplay:10.37,2013-12-20 09:09:00,
2013-12-20 04:19:00,35.1,34.3,30.06,West,281,1.0,2.0,97,0.00,,OVC,0.00,WeatherDisplay:10.37,2013-12-20 09:19:00,
2013-12-20 04:29:00,35.0,35.0,30.06,West,279,1.0,2.0,100,0.00,,OVC,0.00,WeatherDisplay:10.37,2013-12-20 09:29:00,
2013-12-20 04:39:00,35.8,35.8,30.06,WSW,256,1.0,3.0,100,0.00,,OVC,0.00,WeatherDisplay:10.37,2013-12-20 09:39:00,
2013-12-20 04:49:00,36.0,36.0,30.06,West,273,1.0,4.0,100,0.00,,OVC,0.00,WeatherDisplay:10.37,2013-12-20 09:49:00,
2013-12-20 04:59:00,36.3,36.3,30.06,WSW,240,1.0,3.0,100,0.00,,OVC,0.00,WeatherDisplay:10.37,2013-12-20 09:59:00,
2013-12-20 05:09:00,36.7,36.0,30.06,SW,230,2.0,5.0,97,0.00,,OVC,0.00,WeatherDisplay:10.37,2013-12-20 10:09:00,
2013-12-20 05:20:00,37.4,36.1,30.06,SW,215,2.0,5.0,95,0.00,,OVC,0.00,WeatherDisplay:10.37,2013-12-20 10:20:00,
2013-12-20 05:29:00,38.3,36.2,30.06,SW,223,2.0,6.0,92,0.00,,OVC,0.00,WeatherDisplay:10.37,2013-12-20 10:29:00,
2013-12-20 05:39:00,38.7,36.0,30.06,WSW,240,5.0,6.0,90,0.00,,OVC,0.00,WeatherDisplay:10.37,2013-12-20 10:39:00,
2013-12-20 05:49:00,38.8,36.2,30.06,WSW,239,2.0,5.0,90,0.00,,OVC,0.00,WeatherDisplay:10.37,2013-12-20 10:49:00,
2013-12-20 05:59:00,38.6,35.7,30.06,WSW,244,1.0,4.0,89,0.00,,OVC,0.00,WeatherDisplay:10.37,2013-12-20 10:59:00,
2013-12-20 06:09:00,38.3,35.6,30.06,WSW,252,2.0,3.0,90,0.00,,OVC,0.00,WeatherDisplay:10.37,2013-12-20 11:09:00,
2013-12-20 06:19:00,39.2,36.2,30.06,WSW,242,2.0,7.0,89,0.00,,OVC,0.00,WeatherDisplay:10.37,2013-12-20 11:19:00,
2013-12-20 06:29:00,39.4,36.1,30.06,SW,227,3.0,6.0,88,0.00,,OVC,0.00,WeatherDisplay:10.37,2013-12-20 11:29:00,
2013-12-20 06:39:00,39.6,36.0,30.06,WSW,242,2.0,6.0,87,0.00,,OVC,0.00,WeatherDisplay:10.37,2013-12-20 11:39:00,
2013-12-20 06:49:00,40.2,36.3,30.06,WSW,247,3.0,6.0,86,0.00,,OVC,0.00,WeatherDisplay:10.37,2013-12-20 11:49:00,
2013-12-20 06:59:00,40.3,36.4,30.03,WSW,251,2.0,5.0,86,0.00,,OVC,0.00,WeatherDisplay:10.37,2013-12-20 11:59:00,
2013-12-20 07:09:00,40.8,37.0,30.03,WSW,252,2.0,9.0,86,0.00,,OVC,0.00,WeatherDisplay:10.37,2013-12-20 12:09:00,
2013-12-20 07:19:00,41.2,36.8,30.03,WSW,251,2.0,6.0,84,0.00,,OVC,0.00,WeatherDisplay:10.37,2013-12-20 12:19:00,
2013-12-20 07:29:00,41.4,36.3,30.03,West,274,1.0,6.0,82,0.00,,OVC,0.00,WeatherDisplay:10.37,2013-12-20 12:29:00,
2013-12-20 07:39:00,41.4,36.0,30.03,West,261,2.0,5.0,81,0.00,,OVC,0.00,WeatherDisplay:10.37,2013-12-20 12:39:00,
2013-12-20 07:49:00,41.9,35.9,30.03,West,261,2.0,8.0,79,0.00,,OVC,0.00,WeatherDisplay:10.37,2013-12-20 12:49:00,
2013-12-20 07:59:00,42.8,36.4,30.03,SW,232,2.0,8.0,78,0.00,,OVC,0.00,WeatherDisplay:10.37,2013-12-20 12:59:00,
2013-12-20 08:09:00,43.5,36.8,30.03,SW,234,5.0,9.0,77,0.00,,OVC,0.00,WeatherDisplay:10.37,2013-12-20 13:09:00,
2013-12-20 08:19:00,43.7,37.0,30.03,WSW,238,5.0,7.0,77,0.00,,OVC,0.00,WeatherDisplay:10.37,2013-12-20 13:19:00,
2013-12-20 08:29:00,44.3,37.9,30.03,SW,233,6.0,8.0,78,0.00,,OVC,0.00,WeatherDisplay:10.37,2013-12-20 13:29:00,
2013-12-20 08:39:00,44.4,38.0,30.03,SW,234,2.0,9.0,78,0.04,RA,OVC,0.04,WeatherDisplay:10.37,2013-12-20 13:39:00,
2013-12-20 08:49:00,45.0,38.5,30.03,SW,234,3.0,7.0,78,0.04,,OVC,0.04,WeatherDisplay:10.37,2013-12-20 13:49:00,
2013-12-20 08:59:00,45.3,38.2,30.03,WSW,238,3.0,10.0,76,0.04,,OVC,0.04,WeatherDisplay:10.37,2013-12-20 13:59:00,
2013-12-20 09:09:00,45.3,37.9,30.03,SW,234,3.0,7.0,75,0.04,,OVC,0.04,WeatherDisplay:10.37,2013-12-20 14:09:00,
2013-12-20 09:19:00,45.7,37.5,30.03,WSW,252,2.0,12.0,73,0.08,RA,OVC,0.08,WeatherDisplay:10.37,2013-12-20 14:19:00,
2013-12-20 09:29:00,45.4,37.3,30.00,WSW,251,2.0,7.0,73,0.08,,OVC,0.08,WeatherDisplay:10.37,2013-12-20 14:29:00,
2013-12-20 09:39:00,46.2,36.6,30.03,WSW,237,3.0,8.0,69,0.04,,OVC,0.08,WeatherDisplay:10.37,2013-12-20 14:39:00,
2013-12-20 09:49:00,46.6,37.0,30.03,SW,230,5.0,6.0,69,0.04,,OVC,0.08,WeatherDisplay:10.37,2013-12-20 14:49:00,
2013-12-20 09:59:00,46.8,37.1,30.00,SW,233,3.0,8.0,69,0.08,RA,OVC,0.12,WeatherDisplay:10.37,2013-12-20 14:59:00,
2013-12-20 10:09:00,46.7,37.1,30.00,SW,222,3.0,9.0,69,0.08,,OVC,0.12,WeatherDisplay:10.37,2013-12-20 15:09:00,
2013-12-20 10:19:00,47.0,37.3,30.00,SW,233,7.0,10.0,69,0.04,,OVC,0.12,WeatherDisplay:10.37,2013-12-20 15:19:00,
2013-12-20 10:29:00,47.8,37.8,29.97,WSW,241,5.0,12.0,68,0.08,RA,OVC,0.16,WeatherDisplay:10.37,2013-12-20 15:29:00,
2013-12-20 10:39:00,48.3,37.5,30.00,SW,230,8.0,12.0,66,0.08,,OVC,0.16,WeatherDisplay:10.37,2013-12-20 15:39:00,
2013-12-20 10:49:00,48.2,37.4,30.00,WSW,240,3.0,12.0,66,0.08,,OVC,0.16,WeatherDisplay:10.37,2013-12-20 15:49:00,
2013-12-20 11:00:00,48.4,37.2,30.00,SW,234,5.0,10.0,65,0.04,,OVC,0.16,WeatherDisplay:10.37,2013-12-20 16:00:00,
2013-12-20 11:09:00,48.0,36.4,30.00,SW,232,7.0,12.0,64,0.08,RA,OVC,0.20,WeatherDisplay:10.37,2013-12-20 16:09:00,
2013-12-20 11:20:00,47.4,37.8,30.00,SW,230,5.0,12.0,69,0.08,,OVC,0.20,WeatherDisplay:10.37,2013-12-20 16:20:00,
2013-12-20 11:29:00,47.1,38.6,30.00,SW,227,5.0,12.0,72,0.04,,OVC,0.20,WeatherDisplay:10.37,2013-12-20 16:29:00,
2013-12-20 11:39:00,46.6,39.4,30.00,SW,227,6.0,14.0,76,0.08,RA,OVC,0.24,WeatherDisplay:10.37,2013-12-20 16:39:00,
2013-12-20 11:49:00,45.7,39.9,30.00,SW,220,6.0,10.0,80,0.08,,OVC,0.24,WeatherDisplay:10.37,2013-12-20 16:49:00,
2013-12-20 11:59:00,45.1,40.2,30.00,SW,223,7.0,10.0,83,0.08,,OVC,0.24,WeatherDisplay:10.37,2013-12-20 16:59:00,
2013-12-20 12:09:00,44.5,40.6,29.97,SW,231,3.0,9.0,86,0.04,,OVC,0.24,WeatherDisplay:10.37,2013-12-20 17:09:00,
2013-12-20 12:19:00,43.2,40.4,29.97,SW,234,6.0,9.0,90,0.04,,OVC,0.24,WeatherDisplay:10.37,2013-12-20 17:19:00,
2013-12-20 12:29:00,42.6,41.0,30.00,SW,227,3.0,6.0,94,0.09,RA,OVC,0.29,WeatherDisplay:10.37,2013-12-20 17:29:00,
2013-12-20 12:39:00,42.4,40.8,30.00,SW,235,3.0,8.0,94,0.05,,OVC,0.29,WeatherDisplay:10.37,2013-12-20 17:39:00,
2013-12-20 12:49:00,42.4,40.8,30.00,SW,227,3.0,10.0,94,0.05,,OVC,0.29,WeatherDisplay:10.37,2013-12-20 17:49:00,
2013-12-20 13:00:00,42.1,40.8,29.97,SW,226,6.0,9.0,95,0.05,,OVC,0.29,WeatherDisplay:10.37,2013-12-20 18:00:00,
2013-12-20 13:09:00,41.7,40.7,29.97,SW,229,7.0,10.0,96,0.05,,OVC,0.29,WeatherDisplay:10.37,2013-12-20 18:09:00,
2013-12-20 13:19:00,41.5,40.2,29.97,WSW,238,7.0,10.0,95,0.05,,OVC,0.29,WeatherDisplay:10.37,2013-12-20 18:19:00,
2013-12-20 13:29:00,41.9,40.3,29.97,WSW,239,7.0,10.0,94,0.00,,OVC,0.29,WeatherDisplay:10.37,2013-12-20 18:29:00,
2013-12-20 13:39:00,42.5,40.7,29.97,SW,225,5.0,8.0,93,0.00,,OVC,0.29,WeatherDisplay:10.37,2013-12-20 18:39:00,
2013-12-20 13:49:00,43.2,40.4,29.97,SW,224,5.0,9.0,90,0.00,,OVC,0.29,WeatherDisplay:10.37,2013-12-20 18:49:00,
2013-12-20 13:59:00,43.3,40.3,29.97,SW,219,2.0,6.0,89,0.04,RA,OVC,0.34,WeatherDisplay:10.37,2013-12-20 18:59:00,
2013-12-20 14:09:00,43.7,40.4,29.97,SW,233,5.0,9.0,88,0.04,,OVC,0.34,WeatherDisplay:10.37,2013-12-20 19:09:00,
2013-12-20 14:19:00,44.2,41.2,29.97,WSW,243,7.0,13.0,89,0.04,,OVC,0.34,WeatherDisplay:10.37,2013-12-20 19:19:00,
2013-12-20 14:29:00,44.1,41.9,29.97,SW,224,3.0,10.0,92,0.04,,OVC,0.34,WeatherDisplay:10.37,2013-12-20 19:29:00,
2013-12-20 14:39:00,44.2,42.6,29.97,WSW,242,3.0,11.0,94,0.04,,OVC,0.34,WeatherDisplay:10.37,2013-12-20 19:39:00,
2013-12-20 14:49:00,43.8,42.7,29.97,WSW,240,5.0,11.0,96,0.04,,OVC,0.34,WeatherDisplay:10.37,2013-12-20 19:49:00,
2013-12-20 14:59:00,43.9,43.9,29.97,SW,232,7.0,10.0,100,0.00,,OVC,0.34,WeatherDisplay:10.37,2013-12-20 19:59:00,
2013-12-20 15:09:00,43.7,43.7,29.97,WSW,250,6.0,8.0,100,0.00,,OVC,0.34,WeatherDisplay:10.37,2013-12-20 20:09:00,
2013-12-20 15:19:00,43.9,43.9,29.97,SW,236,7.0,12.0,100,0.00,,OVC,0.34,WeatherDisplay:10.37,2013-12-20 20:19:00,
2013-12-20 15:29:00,43.7,43.7,29.94,WSW,246,6.0,9.0,100,0.00,,OVC,0.34,WeatherDisplay:10.37,2013-12-20 20:29:00,
2013-12-20 15:39:00,43.9,43.9,29.97,SW,234,5.0,12.0,100,0.00,,OVC,0.34,WeatherDisplay:10.37,2013-12-20 20:39:00,
2013-12-20 15:49:00,44.0,44.0,29.97,SW,231,8.0,13.0,100,0.00,,OVC,0.34,WeatherDisplay:10.37,2013-12-20 20:49:00,
2013-12-20 15:59:00,43.7,43.7,29.97,SW,230,3.0,10.0,100,0.00,,OVC,0.34,WeatherDisplay:10.37,2013-12-20 20:59:00,
2013-12-20 16:09:00,43.3,43.3,29.97,SW,225,5.0,10.0,100,0.00,,OVC,0.34,WeatherDisplay:10.37,2013-12-20 21:09:00,
2013-12-20 16:19:00,43.5,43.5,29.97,SW,234,6.0,9.0,100,0.00,,OVC,0.34,WeatherDisplay:10.37,2013-12-20 21:19:00,
2013-12-20 16:29:00,43.7,43.7,29.97,SW,231,3.0,10.0,100,0.00,,OVC,0.34,WeatherDisplay:10.37,2013-12-20 21:29:00,
2013-12-20 16:39:00,43.5,43.5,29.94,SW,220,5.0,7.0,100,0.00,,OVC,0.34,WeatherDisplay:10.37,2013-12-20 21:39:00,
2013-12-20 16:49:00,43.9,43.1,29.94,SW,229,6.0,12.0,97,0.00,,OVC,0.34,WeatherDisplay:10.37,2013-12-20 21:49:00,
2013-12-20 16:59:00,44.4,43.6,29.97,SW,224,7.0,14.0,97,0.00,,OVC,0.34,WeatherDisplay:10.37,2013-12-20 21:59:00,
2013-12-20 17:09:00,44.5,43.7,29.97,SW,229,7.0,14.0,97,0.00,,OVC,0.34,WeatherDisplay:10.37,2013-12-20 22:09:00,
2013-12-20 17:19:00,44.8,44.0,29.97,SW,229,7.0,16.0,97,0.00,,OVC,0.34,WeatherDisplay:10.37,2013-12-20 22:19:00,
2013-12-20 17:29:00,44.4,43.4,29.97,SW,231,5.0,10.0,96,0.00,,OVC,0.34,WeatherDisplay:10.37,2013-12-20 22:29:00,
2013-12-20 17:39:00,44.6,43.3,29.97,SW,225,3.0,11.0,95,0.00,,OVC,0.34,WeatherDisplay:10.37,2013-12-20 22:39:00,
2013-12-20 17:49:00,44.9,43.5,29.97,SW,223,5.0,13.0,95,0.00,,OVC,0.34,WeatherDisplay:10.37,2013-12-20 22:49:00,
2013-12-20 17:59:00,45.0,43.3,29.97,SW,225,3.0,8.0,94,0.00,,OVC,0.34,WeatherDisplay:10.37,2013-12-20 22:59:00,
2013-12-20 18:09:00,44.8,43.4,29.97,WSW,238,3.0,8.0,95,0.00,,OVC,0.34,WeatherDisplay:10.37,2013-12-20 23:09:00,
2013-12-20 18:19:00,44.9,43.3,29.97,SW,235,5.0,7.0,94,0.00,,OVC,0.34,WeatherDisplay:10.37,2013-12-20 23:19:00,
2013-12-20 18:29:00,44.8,43.2,29.97,WSW,244,3.0,8.0,94,0.00,,OVC,0.34,WeatherDisplay:10.37,2013-12-20 23:29:00,
2013-12-20 18:39:00,44.6,43.2,29.97,SW,234,3.0,8.0,95,0.00,,OVC,0.34,WeatherDisplay:10.37,2013-12-20 23:39:00,
2013-12-20 18:49:00,44.6,43.3,29.97,SW,218,3.0,7.0,95,0.00,,OVC,0.34,WeatherDisplay:10.37,2013-12-20 23:49:00,
2013-12-20 18:59:00,44.8,43.4,29.97,WSW,237,5.0,9.0,95,0.00,,OVC,0.34,WeatherDisplay:10.37,2013-12-20 23:59:00,
2013-12-20 19:09:00,45.0,43.3,29.97,WSW,237,2.0,6.0,94,0.00,,OVC,0.34,WeatherDisplay:10.37,2013-12-21 00:09:00,
2013-12-20 19:19:00,45.4,43.5,29.97,SW,233,5.0,9.0,93,0.00,,OVC,0.34,WeatherDisplay:10.37,2013-12-21 00:19:00,
2013-12-20 19:29:00,45.9,43.7,30.00,SW,231,5.0,10.0,92,0.00,,OVC,0.34,WeatherDisplay:10.37,2013-12-21 00:29:00,
2013-12-20 19:39:00,45.9,43.4,30.00,WSW,243,7.0,10.0,91,0.00,,OVC,0.34,WeatherDisplay:10.37,2013-12-21 00:39:00,
2013-12-20 19:49:00,45.9,43.1,30.00,SW,232,6.0,10.0,90,0.00,,OVC,0.34,WeatherDisplay:10.37,2013-12-21 00:49:00,
2013-12-20 19:59:00,46.0,43.6,30.00,SW,214,8.0,12.0,91,0.00,,OVC,0.34,WeatherDisplay:10.37,2013-12-21 00:59:00,
2013-12-20 20:09:00,45.9,43.7,30.00,SW,223,6.0,10.0,92,0.00,,OVC,0.34,WeatherDisplay:10.37,2013-12-21 01:09:00,
2013-12-20 20:19:00,46.2,44.3,30.00,SW,227,6.0,14.0,93,0.00,,OVC,0.34,WeatherDisplay:10.37,2013-12-21 01:19:00,
2013-12-20 20:29:00,45.7,44.4,29.97,SW,228,6.0,13.0,95,0.00,,OVC,0.34,WeatherDisplay:10.37,2013-12-21 01:29:00,
2013-12-20 20:39:00,46.0,45.0,29.97,WSW,239,9.0,22.0,96,0.00,,OVC,0.34,WeatherDisplay:10.37,2013-12-21 01:39:00,
2013-12-20 20:49:00,45.7,44.6,29.97,SW,233,5.0,8.0,96,0.00,,OVC,0.34,WeatherDisplay:10.37,2013-12-21 01:49:00,
2013-12-20 20:59:00,45.5,44.7,29.97,SW,225,6.0,10.0,97,0.00,,OVC,0.34,WeatherDisplay:10.37,2013-12-21 01:59:00,
2013-12-20 21:10:00,45.1,44.3,29.97,WSW,247,6.0,7.0,97,0.00,,OVC,0.34,WeatherDisplay:10.37,2013-12-21 02:10:00,
2013-12-20 21:19:00,45.5,45.5,29.97,WSW,237,6.0,10.0,100,0.00,,OVC,0.34,WeatherDisplay:10.37,2013-12-21 02:19:00,
2013-12-20 21:29:00,45.4,45.4,29.97,SW,235,3.0,8.0,100,0.00,,OVC,0.34,WeatherDisplay:10.37,2013-12-21 02:29:00,
2013-12-20 21:39:00,45.3,44.5,29.97,SW,225,5.0,9.0,97,0.00,,OVC,0.34,WeatherDisplay:10.37,2013-12-21 02:39:00,
2013-12-20 21:50:00,45.3,44.5,29.97,South,189,5.0,5.0,97,0.00,,OVC,0.34,WeatherDisplay:10.37,2013-12-21 02:50:00,
2013-12-20 21:59:00,45.1,45.1,29.99,SW,222,3.0,5.0,100,0.00,,OVC,0.34,WeatherDisplay:10.37,2013-12-21 02:59:00,
2013-12-20 22:09:00,45.0,45.0,29.96,SW,231,3.0,7.0,100,0.00,,OVC,0.34,WeatherDisplay:10.37,2013-12-21 03:09:00,
2013-12-20 22:19:00,45.0,45.0,29.96,WSW,242,3.0,6.0,100,0.00,,OVC,0.34,WeatherDisplay:10.37,2013-12-21 03:19:00,
2013-12-20 22:29:00,45.5,44.4,29.96,WSW,257,2.0,7.0,96,0.00,,OVC,0.34,WeatherDisplay:10.37,2013-12-21 03:29:00,
2013-12-20 22:39:00,45.5,44.2,29.96,SW,230,7.0,10.0,95,0.00,,OVC,0.34,WeatherDisplay:10.37,2013-12-21 03:39:00,
2013-12-20 22:49:00,45.7,43.8,29.96,SW,222,6.0,12.0,93,0.00,,OVC,0.34,WeatherDisplay:10.37,2013-12-21 03:49:00,
2013-12-20 22:59:00,45.3,43.4,29.96,SW,229,5.0,10.0,93,0.00,,OVC,0.34,WeatherDisplay:10.37,2013-12-21 03:59:00,
2013-12-20 23:09:00,44.6,43.5,29.99,SW,230,5.0,9.0,96,0.00,,OVC,0.34,WeatherDisplay:10.37,2013-12-21 04:09:00,
2013-12-20 23:19:00,44.6,43.8,29.99,SW,223,5.0,9.0,97,0.00,,OVC,0.34,WeatherDisplay:10.37,2013-12-21 04:19:00,
2013-12-20 23:29:00,43.9,43.9,29.96,SW,232,2.0,9.0,100,0.00,,OVC,0.34,WeatherDisplay:10.37,2013-12-21 04:29:00,
2013-12-20 23:39:00,43.9,43.9,29.96,SW,227,6.0,9.0,100,0.00,,OVC,0.34,WeatherDisplay:10.37,2013-12-21 04:39:00,
2013-12-20 23:49:00,43.5,43.5,29.96,SW,234,3.0,7.0,100,0.00,,OVC,0.34,WeatherDisplay:10.37,2013-12-21 04:49:00,
2013-12-20 23:59:00,43.3,43.3,29.96,WSW,247,1.0,5.0,100,0.00,,OVC,0.00,WeatherDisplay:10.37,2013-12-21 04:59:00,